Regional Weather Roundup
Issued by NWS

Home | Current Version | Previous Version | Text Only | Print | Product List | Glossary Off
Versions: 1 2 3 4 5 6 7 8 9 10 11 12 13 14 15 16 17 18 19 20 21 22 23 24 25 26 27 28 29 30 31 32 33 34 35 36 37 38 39 40 41 42 43 44 45 46 47 48 49 50

000
ASUS45 KBOU 241607
RWRCO

WEATHER ROUNDUP FOR COLORADO
NATIONAL WEATHER SERVICE DENVER/BOULDER CO
1000 AM MDT SUN JUL 24 2016

NOTE: "FAIR" INDICATES FEW OR NO CLOUDS BELOW 12000 FEET WITH NO
SIGNIFICANT WEATHER AND/OR OBSTRUCTIONS TO VISIBILITY.

COZ001>005-013-030-031-241700-
...NORTHWEST COLORADO...

CITY           SKY/WX    TMP DP  RH WIND       PRES   REMARKS
CRAIG          FAIR      76  42  29 E7        30.25F
HAYDEN         FAIR      73  41  31 E6        30.28S
MEEKER         FAIR      75  44  33 CALM      30.27S
MOUNT WERNER   NOT AVBL
STEAMBOAT SPGS FAIR      71  42  35 NW3       30.31R
WALDEN         FAIR      70  36  28 S9        30.39F
$$

COZ006>008-011-241700-
...WEST CENTRAL VALLEYS...

CITY           SKY/WX    TMP DP  RH WIND       PRES   REMARKS
GRAND JUNCTION FAIR      85  43  22 SE16      30.13F
MONTROSE       FAIR      82  44  26 CALM      30.22F
EAGLE          SUNNY     73  39  29 CALM      30.31F
RIFLE          FAIR      81  43  26 E7        30.20F
DELTA          FAIR      85  44  23 CALM      30.19S
NUCLA          FAIR      81  43  26 N5        30.25S
$$

COZ017>023-064>068-241700-
...SOUTHWEST COLORADO...

CITY           SKY/WX    TMP DP  RH WIND       PRES   REMARKS
DURANGO        FAIR      78  46  32 E5        30.28S
CORTEZ         FAIR      83  43  24 SW12      30.21S
PAGOSA SPRINGS FAIR      77  39  26 NE5       30.36F
TELLURIDE      FAIR      67  38  34 CALM      30.51S
WOLF CREEK PAS FAIR      59  41  51 CALM      30.74S
$$

COZ009-010-012-014-032>034-037-058>063-241700-
...CENTRAL COLORADO...

CITY           SKY/WX    TMP DP  RH WIND       PRES   REMARKS
ASPEN          FAIR      72  44  36 E6        30.36F
BUENA VISTA    FAIR      71  39  30 NE3       30.42S
COPPER MTN     FAIR      63  34  34 S3        30.72S
BERTHOUD PASS  FAIR      50  36  57 W6        30.75R
COTTONWOOD PAS FAIR      70  37  30 E5        30.56S
GUNNISON       FAIR      66  45  45 CALM      30.43F
KREMMLING      FAIR      70  45  40 SW3       30.38F
LEADVILLE      FAIR      58  43  57 CALM      30.55F
MONARCH PASS   FAIR      57  36  44 W12       30.82S
SALIDA         FAIR      73  44  35 CALM      30.46F
SUNLIGHT       FAIR      64  41  42 CALM      30.63S
WILKERSON PASS FAIR      59  34  38 CALM      30.69S
$$

COZ069>075-241700-
...SAN LUIS VALLEY/SANGRE DE CRISTO MOUNTAINS...

CITY           SKY/WX    TMP DP  RH WIND       PRES   REMARKS
ALAMOSA        FAIR      74  46  36 CALM      30.37F
LA VETA PASS   FAIR      64  43  45 CALM      30.58S
SAGUACHE       FAIR      75  43  31 W12       30.40S
$$

COZ035-036-038>040-241700-
...NORTHERN COLORADO FRONT RANGE...

CITY           SKY/WX    TMP DP  RH WIND       PRES   REMARKS
DENVER INTL AP FAIR      84  48  28 SW6       30.19R
DMNS CITY PARK   N/A     82  48  30 E3        30.17F
AURORA         MOSUNNY   83  45  26 S10       30.21R
FRONT RANGE AP PTSUNNY   82  50  32 CALM      30.21R
ERIE MUNI ARPT FAIR      75  52  45 CALM      30.17S
BOULDER MUN AP FAIR      73  46  38 CALM      30.18S
CENTENNIAL     FAIR      83  42  23 SW13      30.21F
BROOMFIELD     PTSUNNY   77  50  38 S6        30.21R
LONGMONT       FAIR      76  54  46 CALM      30.19R
$$

COZ041-046-047-076>085-087-088-241700-
...PIKES PEAK/PALMER DIVIDE AND SOUTHERN FOOTHILLS...

CITY           SKY/WX    TMP DP  RH WIND       PRES   REMARKS
COLO. SPRINGS  FAIR      78  51  38 CALM      30.28S
A. F. ACADEMY  FAIR      79  46  30 VRB1      30.28S
SCHRIEVER AFB  NOT AVBL
ELLICOTT       FAIR     N/A N/A N/A S8        30.25S
FALCON         NOT AVBL
FORT CARSON    FAIR      78  51  38 VRB1      30.25R
LIMON          FAIR      79  54  41 SE10G17   30.21F
MONUMENT HILL  FAIR      72  50  46 W6        30.35R
TRINIDAD       NOT AVBL
$$

COZ042>045-048>051-090-091-241700-
...NORTHEAST COLORADO...

CITY           SKY/WX    TMP DP  RH WIND       PRES   REMARKS
GREELEY ARPT   FAIR      77  57  50 SE6       30.17S
AKRON          FAIR      73  57  57 E21G29    30.17F
BURLINGTON     FAIR      81  62  52 NE10      30.15S
WRAY           NOT AVBL
STERLING       FAIR      79  61  53 SE14      30.13S
HOLYOKE        FAIR      81  54  39 W12       30.17S
FORT MORGAN    FAIR      80  53  40 E14       30.16S
$$

COZ086-089-092>099-241700-
...SOUTHEAST COLORADO...

CITY           SKY/WX    TMP DP  RH WIND       PRES   REMARKS
PUEBLO         FAIR      84  53  34 CALM      30.15F
LA JUNTA       FAIR      81  59  47 NE3       30.13S
LAMAR          FAIR      81  63  54 NW5       30.08F
SPRINGFIELD      N/A     82  56  40 N10       30.12S
$$



USA.gov is the U.S. government's official web portal to all federal, state and local government web resources and services.